Regional Weather Roundup
Issued by NWS

Home | Current Version | Previous Version | Graphics & Text | Print | Product List | Glossary On
Versions: 1 2 3 4 5 6 7 8 9 10 11 12 13 14 15 16 17 18 19 20 21 22 23 24 25 26 27 28 29 30 31 32 33 34 35 36 37 38 39 40 41 42 43 44 45 46 47 48 49 50
700
ASUS43 KIND 242259
RWRIN

WEATHER ROUNDUP FOR INDIANA
NATIONAL WEATHER SERVICE INDIANAPOLIS IN
700 PM EDT WED AUG 24 2016

NOTE: "FAIR" INDICATES FEW OR NO CLOUDS BELOW 12,000 FEET WITH NO
SIGNIFICANT WEATHER AND/OR OBSTRUCTIONS TO VISIBILITY.

* - STATION DOES NOT REPORT WEATHER SUCH AS PRECIPITATION OR FOG.

+ - STATION NOT QUALITY CONTROLLED BY THE NATIONAL WEATHER SERVICE.
    USE DATA WITH CAUTION...ESPECIALLY DEWPOINT AND RELATIVE
    HUMIDITY OBSERVATIONS.

INZ001>003-010>013-019-020-250000-
NORTHWEST INDIANA

CITY           SKY/WX    TMP DP  RH WIND       PRES   REMARKS
GARY /AIRPORT/ MOSUNNY   84  72  65 W17G29    29.94R
KNOX *+        PTSUNNY   79  54  41 W6        29.95S
MONTICELLO +   CLOUDY    82  67  62 W8        29.97R

$$

LMZ046-743>745-250000-
SOUTHERN LAKE MICHIGAN

STATION/POSITION TIME  TEMP    WIND        PRES    WAVE
                       AIR SEA DIR/SP/G            HT
                 (UTC) (F)     (DEG/KT/KT) (MB)    (FT)
BURNS HARBOR     2208   79     240/ 14/ 16 1013.9R
MICHIGAN CITY    2200   79     210/ 13/ 15   N/A
5NW MICH CITY    2200   77 74  220/ 10/ 14   N/A     1

$$

INZ004-005-014>016-021>024-250000-
NORTH CENTRAL INDIANA

CITY           SKY/WX    TMP DP  RH WIND       PRES   REMARKS
ELKHART        PTSUNNY   81  73  78 SW9       29.96S
GOSHEN         CLOUDY    78  70  76 SW12      29.96S
PERU/GRISSOM   PTSUNNY   75  75 100 SW8       29.97S
SOUTH BEND     CLOUDY    77  71  82 SW9       29.95S

$$

INZ006>009-017-018-025>027-250000-
NORTHEAST INDIANA

CITY           SKY/WX    TMP DP  RH WIND       PRES   REMARKS
ANGOLA *+      CLOUDY    77  72  83 S8        29.98F
FORT WAYNE     LGT RAIN  77  73  87 S9        29.97F

$$

INZ028-029-035-036-043>045-051>053-250000-
WEST CENTRAL INDIANA

CITY           SKY/WX    TMP DP  RH WIND       PRES   REMARKS
CRAWFORDSVL +  PTSUNNY   81  76  84 SW7       30.00R
LAFAYETTE      PTSUNNY   81  77  88 W7        29.96R
TERRE HAUTE    MOSUNNY   87  75  67 SW12      30.01S HX  96

$$

INZ030>032-037>040-046>048-054>057-064-065-250000-
CENTRAL INDIANA

CITY           SKY/WX    TMP DP  RH WIND       PRES   REMARKS
COLUMBUS       MOSUNNY   84  77  79 SW12G21   30.05R
INDIANAPOLIS   CLOUDY    83  75  77 S13       30.01F
-EAGLE CREEK   PTSUNNY   81  75  82 S7        30.01F
MT COMFORT *+  CLOUDY    75  72  88 S8        30.04S
SHELBYVILLE    CLOUDY    81  74  79 S3        30.03F

$$

INZ033-034-041-042-049-050-058-059-250000-
EAST CENTRAL INDIANA

CITY           SKY/WX    TMP DP  RH WIND       PRES   REMARKS
MUNCIE         CLOUDY    81  73  76 S10G23    30.00F

$$

INZ060-061-067>069-081>083-085>088-250000-
SOUTHWEST INDIANA

CITY           SKY/WX    TMP DP  RH WIND       PRES   REMARKS
EVANSVILLE     SUNNY     88  72  58 SW16      30.05S
HUNTINGBURG *+ PTSUNNY   88  73  62 S12G18    30.05F HX  96

$$

INZ062-063-066-070>080-084-089>092-250000-
SOUTH CENTRAL AND SOUTHEAST INDIANA

CITY           SKY/WX    TMP DP  RH WIND       PRES   REMARKS
BLOOMINGTON    MOSUNNY   83  74  74 SW10      30.04S
MADISON *+     MOSUNNY   84  70  61 S8        30.10S

$$





USA.gov is the U.S. government's official web portal to all federal, state and local government web resources and services.